Year,Month,Day,Hour,Minute,Value (Times are PST for temperature in C)
2010,08,14,10,12,25.40
2010,08,14,10,13,25.40
2010,08,14,10,14,25.40
2010,08,14,10,15,25.40
2010,08,14,10,16,25.40
2010,08,14,10,17,25.50
2010,08,14,10,18,25.60
2010,08,14,10,19,25.70
2010,08,14,10,20,25.70
2010,08,14,10,21,25.80
2010,08,14,10,22,25.90
2010,08,14,10,23,26.00
2010,08,14,10,24,26.10
2010,08,14,10,25,26.20
2010,08,14,10,26,26.20
2010,08,14,10,27,26.30
2010,08,14,10,28,26.30
2010,08,14,10,29,26.40
2010,08,14,10,30,26.50
2010,08,14,10,31,26.60
2010,08,14,10,32,26.60
2010,08,14,10,33,26.70
2010,08,14,10,34,26.70
2010,08,14,10,35,26.70
2010,08,14,10,36,26.80
2010,08,14,10,37,26.80
2010,08,14,10,38,26.90
2010,08,14,10,39,26.90
2010,08,14,10,40,27.00
2010,08,14,10,41,27.00
2010,08,14,10,42,27.00
2010,08,14,10,43,27.00
2010,08,14,10,44,27.10
2010,08,14,10,45,27.10
2010,08,14,10,46,27.20
2010,08,14,10,47,27.20
2010,08,14,10,48,27.20
2010,08,14,10,49,27.30
2010,08,14,10,50,27.30
2010,08,14,10,51,27.30
2010,08,14,10,52,27.20
2010,08,14,10,53,27.20
2010,08,14,10,54,27.10
2010,08,14,10,55,27.10
2010,08,14,10,56,27.20
2010,08,14,10,57,27.20
2010,08,14,10,58,27.30
2010,08,14,10,59,27.30
2010,08,14,11,00,27.40
2010,08,14,11,01,27.40
2010,08,14,11,02,27.40
2010,08,14,11,03,27.40
2010,08,14,11,04,27.40
2010,08,14,11,05,27.40
2010,08,14,11,06,27.40
2010,08,14,11,07,27.40
2010,08,14,11,08,27.30
2010,08,14,11,09,27.40
2010,08,14,11,10,27.40
2010,08,14,11,11,27.40
2010,08,14,11,12,27.50
2010,08,14,11,13,27.50
2010,08,14,11,14,27.60
2010,08,14,11,15,27.60
2010,08,14,11,16,27.60
2010,08,14,11,17,27.60
2010,08,14,11,18,27.70
2010,08,14,11,19,27.80
2010,08,14,11,20,27.80
2010,08,14,11,21,27.90
2010,08,14,11,22,28.00
2010,08,14,11,23,28.00
2010,08,14,11,24,28.10
2010,08,14,11,25,28.10
2010,08,14,11,26,28.00
2010,08,14,11,27,28.10
2010,08,14,11,28,28.10
2010,08,14,11,29,28.10
2010,08,14,11,30,28.00
2010,08,14,11,31,28.10
2010,08,14,11,32,28.10
2010,08,14,11,33,28.20
2010,08,14,11,34,28.30
2010,08,14,11,35,28.30
2010,08,14,11,36,28.40
2010,08,14,11,37,28.40
2010,08,14,11,38,28.40
2010,08,14,11,39,28.40
2010,08,14,11,40,28.40
2010,08,14,11,41,28.40
2010,08,14,11,42,28.40
2010,08,14,11,43,28.50
2010,08,14,11,44,28.50
2010,08,14,11,45,28.50
2010,08,14,11,46,28.50
2010,08,14,11,47,28.50
2010,08,14,11,48,28.60
2010,08,14,11,49,28.60
2010,08,14,11,50,28.60
2010,08,14,11,51,28.60
2010,08,14,11,52,28.60
2010,08,14,11,53,28.70
2010,08,14,11,54,28.70
2010,08,14,11,55,28.70
2010,08,14,11,56,28.70
2010,08,14,11,57,28.80
2010,08,14,11,58,28.90
2010,08,14,11,59,28.90
2010,08,14,12,00,29.00
2010,08,14,12,01,29.10
2010,08,14,12,02,29.10
2010,08,14,12,03,29.10
2010,08,14,12,04,29.10
2010,08,14,12,05,29.00
2010,08,14,12,06,28.90
2010,08,14,12,07,28.90
2010,08,14,12,08,29.00
2010,08,14,12,09,29.00
2010,08,14,12,10,29.10
2010,08,14,12,11,29.20
2010,08,14,12,12,29.30
2010,08,14,12,13,29.30
2010,08,14,12,14,29.30
2010,08,14,12,15,29.30
2010,08,14,12,16,29.20
2010,08,14,12,17,29.20
2010,08,14,12,18,29.20
2010,08,14,12,19,29.20
2010,08,14,12,20,29.20
2010,08,14,12,21,29.20
2010,08,14,12,22,29.30
2010,08,14,12,23,29.40
2010,08,14,12,24,29.50
2010,08,14,12,25,29.60
2010,08,14,12,26,29.70
2010,08,14,12,27,29.80
2010,08,14,12,28,29.90
2010,08,14,12,29,29.90
2010,08,14,12,30,29.90
2010,08,14,12,31,29.80
2010,08,14,12,32,29.80
2010,08,14,12,33,29.80
2010,08,14,12,34,29.70
2010,08,14,12,35,29.70
2010,08,14,12,36,29.70
2010,08,14,12,37,29.70
2010,08,14,12,38,29.70
2010,08,14,12,39,29.70
2010,08,14,12,40,29.70
2010,08,14,12,41,29.70
2010,08,14,12,42,29.80
2010,08,14,12,43,29.80
2010,08,14,12,44,29.90
2010,08,14,12,45,30.00
2010,08,14,12,46,30.00
2010,08,14,12,47,30.10
2010,08,14,12,48,30.20
2010,08,14,12,49,30.20
2010,08,14,12,50,30.20
2010,08,14,12,51,30.20
2010,08,14,12,52,30.30
2010,08,14,12,53,30.30
2010,08,14,12,54,30.30
2010,08,14,12,55,30.30
2010,08,14,12,56,30.30
2010,08,14,12,57,30.30
2010,08,14,12,58,30.30
2010,08,14,12,59,30.30
2010,08,14,13,00,30.30
2010,08,14,13,01,30.30
2010,08,14,13,02,30.30
2010,08,14,13,03,30.30
2010,08,14,13,04,30.30
2010,08,14,13,05,30.40
2010,08,14,13,06,30.40
2010,08,14,13,07,30.40
2010,08,14,13,08,30.40
2010,08,14,13,09,30.40
2010,08,14,13,10,30.50
2010,08,14,13,11,30.50
2010,08,14,13,12,30.60
2010,08,14,13,13,30.60
2010,08,14,13,14,30.60
2010,08,14,13,15,30.60
2010,08,14,13,16,30.70
2010,08,14,13,17,30.80
2010,08,14,13,18,30.90
2010,08,14,13,19,30.90
2010,08,14,13,20,30.90
2010,08,14,13,21,30.90
2010,08,14,13,22,30.90
2010,08,14,13,23,30.90
2010,08,14,13,24,30.90
2010,08,14,13,25,30.90
2010,08,14,13,26,30.90
2010,08,14,13,27,30.80
2010,08,14,13,28,30.80
2010,08,14,13,29,30.80
2010,08,14,13,30,30.80
2010,08,14,13,31,30.80
2010,08,14,13,32,30.80
2010,08,14,13,33,30.80
2010,08,14,13,34,30.80
2010,08,14,13,35,30.80
2010,08,14,13,36,30.80
2010,08,14,13,37,30.90
2010,08,14,13,38,31.00
2010,08,14,13,39,31.10
2010,08,14,13,40,31.20
2010,08,14,13,41,31.30
2010,08,14,13,42,31.40
2010,08,14,13,43,31.40
2010,08,14,13,44,31.40
2010,08,14,13,45,31.40
2010,08,14,13,46,31.40
2010,08,14,13,47,31.40
2010,08,14,13,48,31.30
2010,08,14,13,49,31.30
2010,08,14,13,50,31.30
2010,08,14,13,51,31.40
2010,08,14,13,52,31.40
2010,08,14,13,53,31.40
2010,08,14,13,54,31.40
2010,08,14,13,55,31.50
2010,08,14,13,56,31.60
2010,08,14,13,57,31.60
2010,08,14,13,58,31.60
2010,08,14,13,59,31.50
2010,08,14,14,00,31.50
2010,08,14,14,01,31.40
2010,08,14,14,02,31.50
2010,08,14,14,03,31.60
2010,08,14,14,04,31.70
2010,08,14,14,05,31.70
2010,08,14,14,06,31.80
2010,08,14,14,07,31.70
2010,08,14,14,08,31.60
2010,08,14,14,09,31.50
2010,08,14,14,10,31.50
2010,08,14,14,11,31.50
2010,08,14,14,12,31.60
2010,08,14,14,13,31.60
2010,08,14,14,14,31.70
2010,08,14,14,15,31.90
2010,08,14,14,16,32.00
2010,08,14,14,17,32.10
2010,08,14,14,18,32.20
2010,08,14,14,19,32.20
2010,08,14,14,20,32.10
2010,08,14,14,21,31.90
2010,08,14,14,22,31.80
2010,08,14,14,23,31.70
2010,08,14,14,24,31.60
2010,08,14,14,25,31.60
2010,08,14,14,26,31.60
2010,08,14,14,27,31.60
2010,08,14,14,28,31.60
2010,08,14,14,29,31.70
2010,08,14,14,30,31.80
2010,08,14,14,31,31.90
2010,08,14,14,32,32.00
2010,08,14,14,33,32.00
2010,08,14,14,34,32.10
2010,08,14,14,35,32.20
2010,08,14,14,36,32.20
2010,08,14,14,37,32.20
2010,08,14,14,38,32.20
2010,08,14,14,39,32.20
2010,08,14,14,40,32.20
2010,08,14,14,41,32.30
2010,08,14,14,42,32.30
2010,08,14,14,43,32.30
2010,08,14,14,44,32.20
2010,08,14,14,45,32.00
2010,08,14,14,46,31.90
2010,08,14,14,47,31.90
2010,08,14,14,48,31.80
2010,08,14,14,49,31.80
2010,08,14,14,50,31.70
2010,08,14,14,51,31.80
2010,08,14,14,52,31.80
2010,08,14,14,53,31.90
2010,08,14,14,54,32.00
2010,08,14,14,55,32.10
2010,08,14,14,56,32.10
2010,08,14,14,57,32.20
2010,08,14,14,58,32.30
2010,08,14,14,59,32.30
2010,08,14,15,00,32.30
2010,08,14,15,01,32.20
2010,08,14,15,02,32.10
2010,08,14,15,03,32.10
2010,08,14,15,04,32.00
2010,08,14,15,05,31.90
2010,08,14,15,06,31.90
2010,08,14,15,07,31.90
2010,08,14,15,08,32.00
2010,08,14,15,09,32.00
2010,08,14,15,10,32.10
2010,08,14,15,11,32.20
2010,08,14,15,12,32.30
2010,08,14,15,13,32.40
2010,08,14,15,14,32.40
2010,08,14,15,15,32.40
2010,08,14,15,16,32.40
2010,08,14,15,17,32.40
2010,08,14,15,18,32.30
2010,08,14,15,19,32.20
2010,08,14,15,20,32.20
2010,08,14,15,21,32.20
2010,08,14,15,22,32.20
2010,08,14,15,23,32.20
2010,08,14,15,24,32.20
2010,08,14,15,25,32.20
2010,08,14,15,26,32.30
2010,08,14,15,27,32.30
2010,08,14,15,28,32.20
2010,08,14,15,29,32.20
2010,08,14,15,30,32.20
2010,08,14,15,31,32.20
2010,08,14,15,32,32.20
2010,08,14,15,33,32.30
2010,08,14,15,34,32.40
2010,08,14,15,35,32.40
2010,08,14,15,36,32.50
2010,08,14,15,37,32.50
2010,08,14,15,38,32.60
2010,08,14,15,39,32.60
2010,08,14,15,40,32.60
2010,08,14,15,41,32.70
2010,08,14,15,42,32.70
2010,08,14,15,43,32.80
2010,08,14,15,44,32.80
2010,08,14,15,45,32.80
2010,08,14,15,46,32.80
2010,08,14,15,47,32.90
2010,08,14,15,48,32.80
2010,08,14,15,49,32.80
2010,08,14,15,50,32.70
2010,08,14,15,51,32.70
2010,08,14,15,52,32.70
2010,08,14,15,53,32.60
2010,08,14,15,54,32.50
2010,08,14,15,55,32.50
2010,08,14,15,56,32.40
2010,08,14,15,57,32.30
2010,08,14,15,58,32.30
2010,08,14,15,59,32.30
2010,08,14,16,00,32.40
2010,08,14,16,01,32.40
2010,08,14,16,02,32.50
2010,08,14,16,03,32.50
2010,08,14,16,04,32.50
2010,08,14,16,05,32.60
2010,08,14,16,06,32.60
2010,08,14,16,07,32.60
2010,08,14,16,08,32.60
2010,08,14,16,09,32.60
2010,08,14,16,10,32.70
2010,08,14,16,11,32.70
2010,08,14,16,12,32.70
2010,08,14,16,13,32.70
2010,08,14,16,14,32.70
2010,08,14,16,15,32.70
2010,08,14,16,16,32.80
2010,08,14,16,17,32.80
2010,08,14,16,18,32.70
2010,08,14,16,19,32.70
2010,08,14,16,20,32.60
2010,08,14,16,21,32.50
2010,08,14,16,22,32.40
2010,08,14,16,23,32.30
2010,08,14,16,24,32.20
2010,08,14,16,25,32.20
2010,08,14,16,26,32.20
2010,08,14,16,27,32.20
2010,08,14,16,28,32.30
2010,08,14,16,29,32.40
2010,08,14,16,30,32.40
2010,08,14,16,31,32.40
2010,08,14,16,32,32.40
2010,08,14,16,33,32.50
2010,08,14,16,34,32.50
2010,08,14,16,35,32.50
2010,08,14,16,36,32.40
2010,08,14,16,37,32.40
2010,08,14,16,38,32.40
2010,08,14,16,39,32.40
2010,08,14,16,40,32.40
2010,08,14,16,41,32.50
2010,08,14,16,42,32.60
2010,08,14,16,43,32.70
2010,08,14,16,44,32.70
2010,08,14,16,45,32.60
2010,08,14,16,46,32.60
2010,08,14,16,47,32.50
2010,08,14,16,48,32.40
2010,08,14,16,49,32.40
2010,08,14,16,50,32.50
2010,08,14,16,51,32.50
2010,08,14,16,52,32.60
2010,08,14,16,53,32.60
2010,08,14,16,54,32.60
2010,08,14,16,55,32.60
2010,08,14,16,56,32.70
2010,08,14,16,57,32.70
2010,08,14,16,58,32.80
2010,08,14,16,59,32.90
2010,08,14,17,00,33.00
2010,08,14,17,01,33.00
2010,08,14,17,02,33.10
2010,08,14,17,03,33.00
2010,08,14,17,04,33.00
2010,08,14,17,05,32.90
2010,08,14,17,06,32.90
2010,08,14,17,07,32.80
2010,08,14,17,08,32.70
2010,08,14,17,09,32.70
2010,08,14,17,10,32.70
2010,08,14,17,11,32.60
2010,08,14,17,12,32.70
2010,08,14,17,13,32.70
2010,08,14,17,14,32.70
2010,08,14,17,15,32.70
2010,08,14,17,16,32.70
2010,08,14,17,17,32.70
2010,08,14,17,18,32.60
2010,08,14,17,19,32.60
2010,08,14,17,20,32.60
2010,08,14,17,21,32.50
2010,08,14,17,22,32.50
2010,08,14,17,23,32.50
2010,08,14,17,24,32.50
2010,08,14,17,25,32.50
2010,08,14,17,26,32.50
2010,08,14,17,27,32.50
2010,08,14,17,28,32.50
2010,08,14,17,29,32.50
2010,08,14,17,30,32.50
2010,08,14,17,31,32.50
2010,08,14,17,32,32.40
2010,08,14,17,33,32.40
2010,08,14,17,34,32.40
2010,08,14,17,35,32.40
2010,08,14,17,36,32.40
2010,08,14,17,37,32.40
2010,08,14,17,38,32.40
2010,08,14,17,39,32.40
2010,08,14,17,40,32.40
2010,08,14,17,41,32.40
2010,08,14,17,42,32.40
2010,08,14,17,43,32.40
2010,08,14,17,44,32.40
2010,08,14,17,45,32.40
2010,08,14,17,46,32.40
2010,08,14,17,47,32.40
2010,08,14,17,48,32.30
2010,08,14,17,49,32.30
2010,08,14,17,50,32.30
2010,08,14,17,51,32.30
2010,08,14,17,52,32.30
2010,08,14,17,53,32.30
2010,08,14,17,54,32.30
2010,08,14,17,55,32.30
2010,08,14,17,56,32.30
2010,08,14,17,57,32.30
2010,08,14,17,58,32.30
2010,08,14,17,59,32.30
2010,08,14,18,00,32.30
2010,08,14,18,01,32.30
2010,08,14,18,02,32.20
2010,08,14,18,03,32.20
2010,08,14,18,04,32.20
2010,08,14,18,05,32.20
2010,08,14,18,06,32.10
2010,08,14,18,07,32.10
2010,08,14,18,08,32.10
2010,08,14,18,09,32.00
2010,08,14,18,10,31.90
2010,08,14,18,11,31.90
2010,08,14,18,12,31.90
2010,08,14,18,13,31.90
2010,08,14,18,14,31.90
2010,08,14,18,15,31.80
2010,08,14,18,16,31.80
2010,08,14,18,17,31.80
2010,08,14,18,18,31.80
2010,08,14,18,19,31.80
2010,08,14,18,20,31.80
2010,08,14,18,21,31.80
2010,08,14,18,22,31.80
2010,08,14,18,23,31.80
2010,08,14,18,24,31.80
2010,08,14,18,25,31.80
2010,08,14,18,26,31.80
2010,08,14,18,27,31.80
2010,08,14,18,28,31.80
2010,08,14,18,29,31.80
2010,08,14,18,30,31.80
2010,08,14,18,31,31.70
2010,08,14,18,32,31.70
2010,08,14,18,33,31.70
2010,08,14,18,34,31.60
2010,08,14,18,35,31.60
2010,08,14,18,36,31.60
2010,08,14,18,37,31.60
2010,08,14,18,38,31.60
2010,08,14,18,39,31.60
2010,08,14,18,40,31.60
2010,08,14,18,41,31.60
2010,08,14,18,42,31.60
2010,08,14,18,43,31.60
2010,08,14,18,44,31.60
2010,08,14,18,45,31.50
2010,08,14,18,46,31.50
2010,08,14,18,47,31.50
2010,08,14,18,48,31.40
2010,08,14,18,49,31.40
2010,08,14,18,50,31.40
2010,08,14,18,51,31.40
2010,08,14,18,52,31.40
2010,08,14,18,53,31.40
2010,08,14,18,54,31.40
2010,08,14,18,55,31.30
2010,08,14,18,56,31.30
2010,08,14,18,57,31.30
2010,08,14,18,58,31.30
2010,08,14,18,59,31.30
2010,08,14,19,00,31.30
2010,08,14,19,01,31.20
2010,08,14,19,02,31.20
2010,08,14,19,03,31.20
2010,08,14,19,04,31.20
2010,08,14,19,05,31.10
2010,08,14,19,06,31.10
2010,08,14,19,07,31.10
2010,08,14,19,08,31.00
2010,08,14,19,09,31.00
2010,08,14,19,10,30.90
2010,08,14,19,11,30.90
2010,08,14,19,12,30.90
2010,08,14,19,13,30.80
2010,08,14,19,14,30.80
2010,08,14,19,15,30.80
2010,08,14,19,16,30.70
2010,08,14,19,17,30.70
2010,08,14,19,18,30.60
2010,08,14,19,19,30.60
2010,08,14,19,20,30.60
2010,08,14,19,21,30.50
2010,08,14,19,22,30.40
2010,08,14,19,23,30.40
2010,08,14,19,24,30.30
2010,08,14,19,25,30.20
2010,08,14,19,26,30.10
2010,08,14,19,27,30.00
2010,08,14,19,28,29.90
2010,08,14,19,29,29.80
2010,08,14,19,30,29.70
2010,08,14,19,31,29.60
2010,08,14,19,32,29.60
2010,08,14,19,33,29.50
2010,08,14,19,34,29.50
2010,08,14,19,35,29.40
2010,08,14,19,36,29.30
2010,08,14,19,37,29.30
2010,08,14,19,38,29.20
2010,08,14,19,39,29.10
2010,08,14,19,40,29.10
2010,08,14,19,41,29.00
2010,08,14,19,42,28.90
2010,08,14,19,43,28.80
2010,08,14,19,44,28.80
2010,08,14,19,45,28.70
2010,08,14,19,46,28.60
2010,08,14,19,47,28.50
2010,08,14,19,48,28.40
2010,08,14,19,49,28.30
2010,08,14,19,50,28.20
2010,08,14,19,51,28.10
2010,08,14,19,52,28.00
2010,08,14,19,53,27.90
2010,08,14,19,54,27.80
2010,08,14,19,55,27.70
2010,08,14,19,56,27.60
2010,08,14,19,57,27.40
2010,08,14,19,58,27.30
2010,08,14,19,59,27.20
2010,08,14,20,00,27.10
2010,08,14,20,01,26.90
2010,08,14,20,02,26.80
2010,08,14,20,03,26.70
2010,08,14,20,04,26.60
2010,08,14,20,05,26.50
2010,08,14,20,06,26.40
2010,08,14,20,07,26.30
2010,08,14,20,08,26.20
2010,08,14,20,09,26.10
2010,08,14,20,10,26.00
2010,08,14,20,11,25.90
2010,08,14,20,12,25.90
2010,08,14,20,13,25.70
2010,08,14,20,14,25.70
2010,08,14,20,15,25.60
2010,08,14,20,16,25.50
2010,08,14,20,17,25.40
2010,08,14,20,18,25.40
2010,08,14,20,19,25.30
2010,08,14,20,20,25.20
2010,08,14,20,21,25.10
2010,08,14,20,22,25.10
2010,08,14,20,23,25.00
2010,08,14,20,24,24.90
2010,08,14,20,25,24.80
2010,08,14,20,26,24.80
2010,08,14,20,27,24.70
2010,08,14,20,28,24.60
2010,08,14,20,29,24.60
2010,08,14,20,30,24.50
2010,08,14,20,31,24.40
2010,08,14,20,32,24.40
2010,08,14,20,33,24.30
2010,08,14,20,34,24.20
2010,08,14,20,35,24.20
2010,08,14,20,36,24.10
2010,08,14,20,37,24.10
2010,08,14,20,38,24.00
2010,08,14,20,39,23.90
2010,08,14,20,40,23.80
2010,08,14,20,41,23.80
2010,08,14,20,42,23.80
2010,08,14,20,43,23.80
2010,08,14,20,44,23.80
2010,08,14,20,45,23.80
2010,08,14,20,46,23.80
2010,08,14,20,47,23.80
2010,08,14,20,48,23.80
2010,08,14,20,49,23.80
2010,08,14,20,50,23.80
